Regional Weather Roundup
Issued by NWS

Home | Current Version | Previous Version | Graphics & Text | Print | Product List | Glossary On
Versions: 1 2 3 4 5 6 7 8 9 10 11 12 13 14 15 16 17 18 19 20 21 22 23 24 25 26 27 28 29 30 31 32 33 34 35 36 37 38 39 40 41 42 43 44 45 46 47 48 49 50
000
ASUS43 KBIS 211002
RWRND

NORTH DAKOTA REGIONAL WEATHER ROUNDUP
NATIONAL WEATHER SERVICE BISMARCK ND
400 AM CST SUN JAN 21 2018

NOTE: "FAIR" INDICATES FEW OR NO CLOUDS BELOW 12,000 FEET WITH NO
SIGNIFICANT WEATHER AND/OR OBSTRUCTIONS TO VISIBILITY.


NDZ001>003-009>011-017-211100-
NORTHWEST NORTH DAKOTA

CITY           SKY/WX    TMP DP  RH WIND       PRES   REMARKS
WILLISTON      CLEAR     11   8  88 SW3       29.98S
MINOT          CLEAR     19  15  84 SW8       29.97S WCI   9
MINOT AFB      CLEAR     14  11  87 W6        29.96S WCI   5
$$

NDZ018>021-031>035-040>046-211100-
SOUTHWEST NORTH DAKOTA

CITY           SKY/WX    TMP DP  RH WIND       PRES   REMARKS
BISMARCK       PTCLDY    20  18  92 NW7       30.00S WCI  11
DICKINSON      MOCLDY    21  15  78 W12       29.95R WCI   9
GARRISON         N/A     11   8  88 N3        29.97F
HETTINGER ARPT CLOUDY    24  17  74 NW6       29.99R WCI  17
$$

NDZ004>008-012>016-024-026-027-054-211100-
NORTHEAST NORTH DAKOTA

CITY           SKY/WX    TMP DP  RH WIND       PRES   REMARKS
GRAND FORKS    FAIR      18  16  92 NW6       29.99R WCI  10
GRND FRKS AFB  FAIR      20  17  88 NW8       29.99S WCI  10
DEVILS LAKE    FAIR      15  13  91 CALM      29.99R
$$

NDZ022-023-025-028>030-036>039-047>053-211100-
SOUTHEAST NORTH DAKOTA

CITY           SKY/WX    TMP DP  RH WIND       PRES   REMARKS
FARGO          FAIR      25  24  96 NW3       29.98R
JAMESTOWN      CLOUDY    19  17  92 NW7       29.97S WCI  10
$$




USA.gov is the U.S. government's official web portal to all federal, state and local government web resources and services.